Home > Weather > Lanchow > Past weeks

Flag for China Past Weather in Lanchow, Gansu, China — Yesterday and Last 2 Weeks

Now
72 °F

Passing clouds.


Feels Like: 76 °F
Forecast: 58 / 86 °F
Wind: 6 mph from South

Location: Lanzhou / Zhongchuan

Current Time: Jul 27, 2016 at 11:58:12 AM

Latest Report: Jul 27, 2016 at 11:00 AM


Visibility: N/A

Pressure: 30.12 "Hg (25.23 "Hg at 1531m altitude)

Humidity: 61%

Dew Point: 57 °F

Location of LanchowLocation

Past Weather in Lanchow — Graph

°F

Lanchow Temperature Yesterday

Maximum temperature yesterday: 81 °F (at 4:00 PM)
Minimum temperature yesterday: 55 °F (at 7:00 AM)
Average temperature yesterday: 66 °F

High & Low Weather Summary for the Past Weeks

 TemperatureHumidityPressure
High84 °F (Jul 15, 3:00 PM)100% (Jul 19, 1:00 AM)30.18 "Hg (Jul 19, 1:00 AM)
Low50 °F (Jul 15, 5:00 AM)21% (Jul 15, 2:00 PM)29.80 "Hg (Jul 20, 5:00 PM)
Average66 °F68%29.99 "Hg
* Reported Jul 12 10:00 AM — Jul 27 10:00 AM, Lanchow, Weather by CustomWeather, © 2016

Note: Actual official high and low records may vary slightly from our data, if they occured in-between our weather recording intervals... More about our weather records

Advertising

Lanchow Weather History for the Previous 24 Hours

Scroll right to see more
 ConditionsComfort  
Time TempWeatherWind HumidityBarometerVisibility
10:00 AM
Wed, Jul 27
70 °FPassing clouds.3 mph53%30.12 "HgN/A
9:00 AM66 °FPassing clouds.3 mph60%30.12 "HgN/A
8:00 AM63 °FSunny.No wind73%30.12 "Hg10 mi
7:00 AM54 °FClear.1 mph88%30.09 "Hg10 mi
6:00 AM50 °FClear.3 mph100%30.09 "Hg10 mi
5:00 AM52 °FClear.1 mph94%30.09 "Hg10 mi
4:00 AM54 °FClear.1 mph94%30.09 "Hg10 mi
3:00 AM55 °FClear.1 mph88%30.09 "Hg10 mi
2:00 AM57 °FClear.3 mph88%30.09 "Hg10 mi
1:00 AM59 °FPassing clouds.6 mph82%30.09 "HgN/A
12:00 AM61 °FClear.3 mph72%30.12 "Hg10 mi
11:00 PM
Tue, Jul 26
63 °FPassing clouds.8 mph68%30.12 "HgN/A
10:00 PM64 °FPassing clouds.3 mph64%30.12 "HgN/A
9:00 PM64 °FScattered clouds.6 mph73%30.12 "HgN/A
8:00 PM68 °FScattered clouds.6 mph60%30.12 "HgN/A
7:00 PM70 °FSprinkles. Passing clouds.8 mph53%30.12 "HgN/A
6:00 PM70 °FPassing clouds.17 mph53%30.12 "HgN/A
5:00 PM81 °FPassing clouds.6 mph34%30.07 "HgN/A
4:00 PM81 °FPassing clouds.6 mph37%30.07 "HgN/A
3:00 PM79 °FPassing clouds.6 mph45%30.07 "HgN/A
2:00 PM77 °FPassing clouds.6 mph51%30.09 "HgN/A
1:00 PM73 °FPassing clouds.3 mph57%30.12 "HgN/A
12:00 PM72 °FPassing clouds.6 mph61%30.12 "HgN/A
11:00 AM68 °FPassing clouds.3 mph64%30.12 "HgN/A
Weather by CustomWeather, © 2016

See weather overviewHow to use our weather pages